Paynesville, MN

9:45 PM CDT on October 18, 2017 (GMT -0500)
Paynesville

Weather History for KPEX - June, 2014

Change the Weather History Date:

Sunday, June 29, 2014

  Actual Average (KLJF) Record (KLJF)
Temperature  
Mean Temperature 69 °F -  
Max Temperature 78 °F 82 °F 114 °F (1997)
Min Temperature 60 °F 59 °F 46 °F (1959)
Cooling Degree Days 4    
Growing Degree Days 19 (Base 50)    
Moisture  
Dew Point 56 °F    
Average Humidity 65    
Maximum Humidity 95    
Minimum Humidity 34    
Precipitation  
Precipitation 0.00 in - - ()
Sea Level Pressure  
Sea Level Pressure 29.70 in    
Wind  
Wind Speed 11 mph (South)    
Max Wind Speed 25 mph    
Max Gust Speed 38 mph    
Visibility 10 miles    
Events Rain    
Averages and records for this station are not official NWS values.
T = Trace of Precipitation, MM = Missing Value Source: NWS Daily Summary

Daily Weather History Graph

Daily Weather History Graph

Search for Another Location

Airport or City:

Trip Planner

Search our weather history database for the weather conditions in past years. The results will help you decide how hot, cold, wet, or windy it might be!

Date:

Astronomy

Jun. 29, 2014 Rise Set
Actual Time 5:33 AM CDT 9:11 PM CDT
Civil Twilight 4:55 AM CDT 9:48 PM CDT
Nautical Twilight 4:05 AM CDT 10:38 PM CDT
Astronomical Twilight 2:58 AM CDT 11:45 PM CDT
Moon 8:00 AM CDT (6/29) 10:22 PM CDT (6/29)
Length of Visible Light 16h 52m
Length of Day
15h 37m
Waxing Crescent, 5% of the Moon is Illuminated
Jun 29
Waxing Crescent
Jul 5
First Quarter
Jul 12
Full
Jul 18
Last Quarter
Jul 26
New

Hourly Weather History & Observations

Time (CDT) Temp. Dew Point Humidity Pressure Visibility Wind Dir Wind Speed Gust Speed Precip Events Conditions
12:12 AM 65.3 °F 61.0 °F 86% 29.71 in 5.0 mi SSE 6.9 mph - N/A   Clear
12:32 AM 64.9 °F 61.0 °F 87% 29.72 in 7.0 mi SSE 9.2 mph - N/A   Clear
12:52 AM 64.4 °F 61.0 °F 89% 29.71 in 7.0 mi SSE 8.1 mph - N/A   Scattered Clouds
1:12 AM 64.4 °F 61.2 °F 89% 29.72 in 10.0 mi SSE 6.9 mph - N/A   Scattered Clouds
1:32 AM 64.4 °F 61.0 °F 89% 29.72 in 10.0 mi SSE 8.1 mph - N/A   Scattered Clouds
1:52 AM 64.0 °F 60.8 °F 89% 29.71 in 10.0 mi SSE 9.2 mph - N/A   Scattered Clouds
2:11 AM 63.9 °F 61.0 °F 90% 29.71 in 10.0 mi SSE 8.1 mph - N/A   Scattered Clouds
2:32 AM 63.9 °F 61.0 °F 90% 29.70 in 10.0 mi SE 9.2 mph - N/A   Mostly Cloudy
2:51 AM 63.9 °F 60.8 °F 90% 29.71 in 10.0 mi SSE 9.2 mph - N/A   Mostly Cloudy
3:12 AM 63.1 °F 60.4 °F 91% 29.70 in 10.0 mi SSE 6.9 mph - N/A   Scattered Clouds
3:32 AM 62.4 °F 60.1 °F 92% 29.69 in 10.0 mi SSE 5.8 mph - N/A   Scattered Clouds
3:52 AM 62.1 °F 59.9 °F 93% 29.70 in 10.0 mi SSE 6.9 mph - N/A   Clear
4:12 AM 61.7 °F 59.9 °F 94% 29.69 in 10.0 mi SE 6.9 mph - N/A   Clear
4:32 AM 61.3 °F 59.5 °F 94% 29.69 in 10.0 mi SE 8.1 mph - N/A   Clear
4:52 AM 61.3 °F 59.4 °F 93% 29.69 in 10.0 mi SSE 6.9 mph - N/A   Clear
5:12 AM 60.8 °F 59.2 °F 94% 29.68 in 10.0 mi SSE 6.9 mph - N/A   Clear
5:32 AM 60.6 °F 59.2 °F 95% 29.69 in 10.0 mi SSE 6.9 mph - N/A   Clear
5:52 AM 60.8 °F 59.4 °F 95% 29.70 in 10.0 mi SSE 6.9 mph - N/A   Scattered Clouds
6:12 AM 61.2 °F 59.5 °F 94% 29.70 in 10.0 mi SSE 6.9 mph - N/A   Mostly Cloudy
6:32 AM 61.2 °F 59.7 °F 95% 29.71 in 10.0 mi SSE 4.6 mph - N/A   Scattered Clouds
6:52 AM 61.9 °F 59.9 °F 93% 29.72 in 10.0 mi South 3.5 mph - N/A   Scattered Clouds
7:12 AM 63.5 °F 60.4 °F 90% 29.71 in 10.0 mi South 5.8 mph - N/A   Clear
7:32 AM 64.4 °F 60.8 °F 88% 29.70 in 10.0 mi SE 4.6 mph - N/A   Clear
7:52 AM 64.8 °F 60.6 °F 86% 29.70 in 10.0 mi SSE 8.1 mph - N/A   Clear
8:12 AM 64.4 °F 60.4 °F 87% 29.72 in 10.0 mi SSW 11.5 mph 17.3 mph N/A Rain Light Rain
8:32 AM 63.3 °F 60.6 °F 91% 29.72 in 10.0 mi South 6.9 mph - N/A Rain Rain
8:52 AM 66.7 °F 60.4 °F 80% 29.70 in 10.0 mi South 11.5 mph - N/A   Clear
9:12 AM 68.0 °F 60.1 °F 76% 29.71 in 10.0 mi SSW 12.7 mph 17.3 mph N/A   Clear
9:32 AM 68.9 °F 59.7 °F 72% 29.71 in 10.0 mi SSW 18.4 mph 23.0 mph N/A   Clear
9:52 AM 69.3 °F 60.1 °F 72% 29.71 in 10.0 mi SSW 17.3 mph 21.9 mph N/A   Clear
10:12 AM 70.2 °F 60.4 °F 71% 29.70 in 10.0 mi South 15.0 mph 19.6 mph N/A   Clear
10:32 AM 71.1 °F 60.8 °F 70% 29.70 in 10.0 mi South 13.8 mph 17.3 mph N/A   Clear
10:52 AM 71.8 °F 60.1 °F 67% 29.70 in 10.0 mi South 13.8 mph 19.6 mph N/A   Clear
11:12 AM 72.5 °F 58.5 °F 61% 29.72 in 10.0 mi South 13.8 mph 21.9 mph N/A   Clear
11:32 AM 72.5 °F 58.3 °F 61% 29.70 in 10.0 mi South 12.7 mph 21.9 mph N/A   Clear
11:52 AM 73.4 °F 57.0 °F 56% 29.71 in 10.0 mi South 18.4 mph 24.2 mph N/A   Clear
12:11 PM 73.4 °F 57.4 °F 57% 29.71 in 10.0 mi South 12.7 mph 24.2 mph N/A   Clear
12:32 PM 74.5 °F 55.8 °F 52% 29.72 in 10.0 mi South 19.6 mph 27.6 mph N/A   Clear
12:52 PM 75.0 °F 54.9 °F 49% 29.72 in 10.0 mi South 24.2 mph 31.1 mph N/A   Clear
1:12 PM 75.2 °F 55.8 °F 51% 29.72 in 10.0 mi South 16.1 mph 28.8 mph N/A   Clear
1:31 PM 75.9 °F 55.4 °F 49% 29.72 in 10.0 mi South 24.2 mph 31.1 mph N/A   Scattered Clouds
1:52 PM 76.5 °F 54.1 °F 46% 29.72 in 10.0 mi South 20.7 mph 27.6 mph N/A   Scattered Clouds
2:12 PM 76.6 °F 52.5 °F 43% 29.72 in 10.0 mi South 21.9 mph 32.2 mph N/A   Clear
2:31 PM 77.4 °F 50.2 °F 38% 29.72 in 10.0 mi SSW 24.2 mph 32.2 mph N/A   Clear
2:52 PM 77.5 °F 50.5 °F 39% 29.70 in 10.0 mi South 18.4 mph 32.2 mph N/A   Clear
3:12 PM 77.5 °F 49.3 °F 37% 29.70 in 10.0 mi South 20.7 mph 32.2 mph N/A   Clear
3:32 PM 78.1 °F 49.5 °F 37% 29.70 in 10.0 mi South 25.3 mph 34.5 mph N/A   Clear
3:51 PM 78.1 °F 50.2 °F 38% 29.68 in 10.0 mi SSW 20.7 mph 31.1 mph N/A   Clear
4:12 PM 78.1 °F 49.3 °F 36% 29.67 in 10.0 mi South 20.7 mph 34.5 mph N/A   Clear
4:32 PM 78.3 °F 48.9 °F 36% 29.67 in 10.0 mi SSW 25.3 mph 38.0 mph N/A   Clear
4:51 PM 78.3 °F 49.6 °F 37% 29.66 in 10.0 mi SSW 20.7 mph 31.1 mph N/A   Clear
5:12 PM 78.1 °F 47.5 °F 34% 29.66 in 10.0 mi SSW 21.9 mph 28.8 mph N/A   Clear
5:32 PM 78.1 °F 48.7 °F 36% 29.66 in 10.0 mi SSW 18.4 mph 29.9 mph N/A   Clear
5:52 PM 77.9 °F 48.2 °F 35% 29.66 in 10.0 mi SSW 19.6 mph 28.8 mph N/A   Clear
6:12 PM 77.7 °F 50.0 °F 38% 29.66 in 10.0 mi SSW 20.7 mph 29.9 mph N/A   Clear
6:32 PM 77.0 °F 49.6 °F 38% 29.66 in 10.0 mi SSW 18.4 mph 28.8 mph N/A   Clear
6:52 PM 77.0 °F 49.5 °F 38% 29.66 in 10.0 mi SSW 18.4 mph 27.6 mph N/A   Clear
7:12 PM 76.5 °F 48.7 °F 38% 29.67 in 10.0 mi SSW 24.2 mph 32.2 mph N/A   Clear
7:32 PM 75.7 °F 48.6 °F 38% 29.67 in 10.0 mi SSW 16.1 mph 20.7 mph N/A   Clear
7:52 PM 75.2 °F 49.8 °F 41% 29.67 in 10.0 mi SSW 13.8 mph 21.9 mph N/A   Clear
8:12 PM 74.5 °F 49.6 °F 42% 29.67 in 10.0 mi SSW 12.7 mph 19.6 mph N/A   Clear
8:32 PM 72.5 °F 50.9 °F 47% 29.67 in 10.0 mi SSW 9.2 mph - N/A   Clear
8:51 PM 69.4 °F 52.2 °F 54% 29.68 in 10.0 mi South 8.1 mph - N/A   Clear
9:12 PM 67.6 °F 52.3 °F 58% 29.68 in 10.0 mi South 8.1 mph - N/A   Clear
9:32 PM 68.2 °F 51.3 °F 55% 29.69 in 10.0 mi South 10.4 mph - N/A   Clear
9:52 PM 67.1 °F 50.9 °F 56% 29.69 in 7.0 mi SSW 9.2 mph - N/A   Clear
10:12 PM 66.4 °F 51.1 °F 58% 29.69 in 10.0 mi SSW 9.2 mph - N/A   Clear
10:32 PM 67.6 °F 50.0 °F 53% 29.69 in 10.0 mi South 9.2 mph - N/A   Clear
10:51 PM 68.2 °F 50.0 °F 52% 29.69 in 10.0 mi South 9.2 mph - N/A   Clear
11:11 PM 67.5 °F 50.9 °F 55% 29.68 in 10.0 mi South 9.2 mph - N/A   Clear
11:32 PM 66.9 °F 50.9 °F 56% 29.68 in 10.0 mi SSW 10.4 mph - N/A   Clear
11:52 PM 65.3 °F 51.8 °F 62% 29.68 in 10.0 mi SSW 8.1 mph - N/A   Clear